Location: �terpigny
(49.8910°N, 2.9249°E)
Time: 17:50:14
(UTC+00:00)

DIWATA 2B (PO-101) - Pass Details

Date: 05 July 2022
Orbit: 583 x 599 km, 98.0° (Epoch: 19 August)

Event Time Altitude Azimuth Distance (km) Brightness Sun altitude
Exits shadow 00:35:56 - 126° (SE) 2,184 ? -16.7°
Reaches altitude 10° 00:36:37 10° 122° (ESE) 1,941 ? -16.7°
Maximum altitude 00:40:09 27° 64° (ENE) 1,170 ? -16.6°
Drops below altitude 10° 00:43:43 10° 7° (N) 1,952 ? -16.4°
Sets 00:46:08 0° 355° (N) 2,859 ? -16.4°
